Weather in Vengurla

India     15°51′29″N   73°38′13″E
temp.,
°C
wind,
m/s
gust,
m/s
humid.,
%
clouds,
%
prec.,
mm/h
press.,
hPa
HPBL,
m
27 october, wed
wed2723:30+24nnw38760 0.0 1011208
02:30+23ne12780 0.0 100924
05:30+22ene23610 0.0 101054
08:30+26ene36580 0.0 1012227
11:30+32ene46380 0.0 10111464
14:30+34n13335 0.0 10082178
17:30+27w36670 0.0 1008180
20:30+25n22755 0.0 101039
28 october, thu
thu2823:30+23ne22606 0.0 101127
02:30+22ene22565 0.0 100925
05:30+22ene226219 0.0 101032
08:30+26e395839 0.0 1013298
11:30+32ene443663 0.0 10111575
14:30+33nne1332100 0.0 10082217
17:30+27w3563100 0.0 1009133
20:30+25ne1169100 0.0 101112
29 october, fri
fri2923:30+23ene2266100 0.0 101122
02:30+22ene2257100 0.0 101025
05:30+22ene2360100 0.0 101144
08:30+26ene3960100 0.0 1013418
11:30+32ene354174 0.0 10121537
14:30+34sw243975 0.0 10092158
17:30+28wnw3667100 0.0 1009203
20:30+26n2572100 0.0 1012150
30 october, sat
sat3023:30+26n1169100 0.0 101252
02:30+26ese236982 0.0 101081
05:30+25se2271100 0.0 101173
08:30+28ne2366100 0.0 1013270
11:30+33ese354986 0.0 10111712
14:30+30w456799 0.1 1009188
17:30+28nw357499 0.1 1010179
20:30+28ese0076100 0.4 101212
31 october, sun
sun3123:30+26ese2286100 0.9 101139
02:30+25ese228691 0.5 100932
05:30+24ese118831 0.7 101020
08:30+27ene127497 0.0 1012163
11:30+33e355082 0.0 10111826
14:30+31w2360100 0.1 1008777
17:30+28nw1179100 1.5 100939
20:30+26nne228397 0.0 101122